SCP
0 0 0 0 0 0 0 0 0 0 0 0 0 0 0 0 0 0 0 0 0 0 0 0 0 0 0 0 0 0 0 0 0 0 0 0 0 0 0 0 0 0 0
0 0 0 0 0 0 0 -0 -0 -0 0 -0 0 0 0 0 0 0 0 0 0 0 0 0 0 0 0 0 0 0 0 0 0 0 0 0 0 0 0 0 0 0 0
0 0 0 0 0 0 0 0 -0 -0 -0 -0 -0 0 0 0 0 0 0 0 0 0 0 0 0 0 0 0 0 0 0 0 1 0 0 0 1 1 0 0 0 0 0
0 0 0 0 0 0 0 0 -0 -0 -0 -0 -0 -0 -0 0 0 0 0 0 0 0 0 0 0 0 0 0 0 0 0 1 0 1 0 1 1 1 1 1 0 0 0
0 0 0 0 0 0 0 0 0 -0 -0 -0 -0 0 0 0 0 0 0 0 0 0 0 0 0 0 0 0 0 0 0 0 0 1 0 1 1 1 1 1 1 0 0
0 0 0 0 0 0 0 0 0 -0 -0 -0 -0 0 -0 0 0 0 0 0 0 0 0 0 0 0 0 0 0 0 0 0 0 0 1 1 1 1 1 1 1 1 0
0 0 0 0 0 0 0 0 0 0 0 -0 -0 -0 -0 -0 0 0 0 0 0 0 0 0 0 0 0 0 0 0 0 0 0 0 0 0 1 1 1 1 1 1 1
0 0 0 0 0 0 0 0 0 0 0 0 0 -0 -0 -0 0 0 0 0 0 0 0 0 0 0 0 0 0 0 0 0 0 0 0 0 0 1 1 1 1 1 1
0 0 0 0 0 0 0 0 0 0 0 0 0 0 0 0 0 -0 0 0 0 0 0 0 0 0 0 0 0 0 0 0 0 0 0 0 0 0 1 1 1 1 1
0 0 0 0 0 0 0 0 0 0 0 0 0 0 0 0 0 0 0 0 0 0 0 0 0 0 0 0 0 0 0 0 0 0 0 0 0 0 0 0 0 1 1
0 0 0 0 0 0 0 0 0 0 0 0 0 0 0 0 0 0 0 0 0 0 0 0 0 0 0 0 0 0 0 0 0 0 0 0 0 0 0 0 0 0 0
0 0 0 0 0 0 0 0 0 0 0 0 0 0 0 0 0 0 0 0 0 0 0 0 0 0 0 0 0 0 0 0 0 0 0 0 0 0 0 0 0 0 1
0 0 0 0 0 0 0 0 0 0 0 0 0 0 0 0 0 0 0 0 0 0 0 0 0 0 0 0 0 0 0 0 0 0 0 0 0 0 0 0 0 0 0
0 0 0 0 0 0 0 0 0 0 0 0 0 0 0 0 0 0 0 0 0 0 0 0 0 0 0 0 0 0 0 0 0 0 0 0 0 0 0 0 0 0 0
0 0 0 0 0 0 0 0 0 0 0 0 0 0 0 0 0 0 0 0 0 0 0 0 0 0 0 0 0 0 0 0 0 0 0 0 0 0 0 0 0 0 0
0 0 0 0 0 0 0 0 0 0 0 0 0 0 0 0 0 0 0 0 0 0 0 0 0 0 0 0 0 0 0 0 0 0 0 0 0 0 0 0 0 0 0
0 0 0 0 0 0 0 0 0 0 0 0 0 0 0 0 0 0 0 0 0 0 0 0 0 0 0 0 0 0 0 0 0 0 0 0 0 0 0 0 0 0 0
0 0 0 0 0 0 0 0 0 0 0 0 0 0 0 0 0 0 0 0 0 0 0 0 0 0 0 0 0 0 0 0 0 0 0 0 0 0 0 0 0 0 0
0 0 0 0 0 0 0 0 0 0 0 0 0 0 0 0 0 0 0 0 0 0 0 0 0 0 0 0 0 0 0 0 0 0 0 0 0 0 0 0 0 0 0
0 0 0 0 0 0 0 0 0 0 0 0 0 0 0 0 0 0 0 0 0 0 0 0 0 0 0 0 0 0 0 0 0 0 0 0 0 0 0 0 0 0 0
0 0 0 0 0 0 0 0 0 0 0 0 0 0 0 0 0 0 0 0 0 0 0 0 0 0 0 0 0 0 0 0 0 0 0 0 0 0 0 0 0 0 0
0 0 0 0 0 0 0 0 0 0 0 0 0 0 0 0 0 0 0 0 0 0 0 0 0 0 0 0 0 0 0 0 0 0 0 0 0 0 0 0 0 0 0
0 0 0 0 0 0 -0 -0 -0 0 0 0 0 0 0 0 0 0 0 0 0 0 0 0 0 0 0 0 -0 0 0 0 0 0 0 0 0 0 0 0 0 0 0
0 0 -0 -0 0 0 -0 0 0 0 0 0 0 0 0 0 0 0 0 0 -0 -0 0 0 0 0 0 -0 -0 -0 0 0 0 0 0 0 0 0 0 0 0 0 0
0 -0 -0 0 0 0 0 0 0 0 0 0 0 0 0 0 0 -0 0 0 0 -0 -0 -0 -0 -0 -0 -0 -0 -0 -0 0 0 0 0 0 0 0 0 0 0 0 0
0 -0 -0 0 0 0 -0 -0 0 0 0 0 0 0 0 0 0 0 0 0 0 0 0 -0 -0 -0 -0 0 0 0 0 0 0 0 0 0 0 0 0 0 0 0 0
Wind_Speed_500mb
28 31 33 36 38 40 42 44 46 47 48 49 49 51 51 52 53 56 58 58 62 66 71 71 73 74 74 70 60 64 65 63 59 54 65 66 68 68 63 57 51 50 48
34 36 38 40 42 45 47 49 52 54 55 58 58 60 61 61 60 60 61 61 61 65 70 74 75 80 84 80 75 65 64 70 67 65 58 70 72 73 70 65 61 56 55
39 41 43 44 45 47 49 52 54 57 60 63 64 66 67 67 68 68 68 68 66 65 67 72 76 79 82 87 79 76 74 66 74 71 68 64 76 76 75 73 69 65 61
43 44 46 46 48 50 53 56 59 62 64 67 71 72 73 75 75 74 73 72 71 70 68 68 73 77 81 85 91 80 80 83 69 77 72 70 73 81 82 82 77 75 72
47 48 48 49 51 54 55 59 62 66 71 74 79 80 79 78 77 75 74 73 70 68 68 67 71 75 79 84 90 97 90 81 88 67 79 76 72 81 87 88 86 84 82
48 48 49 51 55 58 59 62 67 69 74 79 86 88 86 81 75 68 59 55 54 54 57 60 64 70 75 81 86 91 101 97 92 87 70 83 81 78 89 93 94 94 92
47 47 50 54 57 60 63 65 70 72 73 72 80 83 84 73 52 56 50 44 40 44 45 46 51 58 63 70 78 84 89 97 100 98 95 75 90 88 88 96 101 101 101
45 48 53 56 59 64 65 66 68 72 71 62 60 63 46 64 44 27 41 40 37 38 37 37 40 46 53 58 63 71 80 87 95 100 105 99 95 105 96 100 106 109 107
46 51 55 59 62 66 68 69 68 64 63 59 43 32 19 15 59 33 26 46 43 47 48 48 49 50 52 52 52 58 60 75 84 93 98 113 110 113 72 105 118 113 108
48 51 55 60 64 68 69 67 63 58 53 53 44 38 35 41 24 42 43 51 63 53 51 53 55 59 60 60 54 52 52 48 58 80 92 99 112 110 109 88 75 109 110
49 52 57 62 66 67 68 61 53 45 40 42 37 36 40 43 46 56 78 50 64 71 67 58 48 50 48 52 59 58 54 49 46 52 64 82 99 105 107 107 97 72 81
48 53 59 61 61 59 56 48 41 38 36 37 39 40 41 46 45 51 64 71 74 78 74 69 64 51 47 50 50 50 49 52 58 54 54 66 78 89 100 92 93 97 93
48 52 55 56 54 51 46 39 38 37 38 40 41 44 44 48 49 54 60 71 78 80 78 76 62 60 53 43 36 33 39 48 55 59 60 60 69 79 78 84 80 72 72
49 52 54 54 48 46 40 35 38 40 40 41 43 45 49 51 51 52 55 62 78 77 68 64 65 56 38 46 55 58 50 48 53 54 59 56 61 67 70 70 67 65 70
48 51 52 50 44 41 37 37 39 40 41 44 46 48 50 52 52 52 54 57 61 77 90 63 59 54 62 61 59 48 55 53 47 55 56 54 60 61 62 64 64 65 59
46 48 47 44 40 39 38 36 39 42 43 46 48 51 53 56 57 58 57 60 65 73 96 70 66 71 64 70 66 66 61 53 47 48 53 47 45 56 61 60 65 63 67
43 44 45 41 40 38 38 39 42 43 45 48 51 55 60 61 64 70 70 70 68 65 84 97 79 72 75 69 64 58 59 57 59 48 44 47 35 40 49 56 57 59 66
40 42 40 38 36 36 37 39 40 38 40 43 43 46 50 52 57 56 58 63 67 68 76 94 80 76 71 66 65 64 62 48 50 47 35 36 37 32 36 49 59 58 60
38 38 33 33 33 35 36 34 35 34 34 41 43 46 52 54 59 60 60 65 66 68 69 80 90 77 73 66 65 61 49 49 44 42 36 33 38 40 37 33 52 57 60
36 36 31 29 31 34 33 31 27 32 41 42 46 49 46 47 52 57 63 68 71 68 71 72 76 77 71 70 70 68 54 38 38 40 33 34 37 39 43 41 39 44 50
33 32 28 25 28 31 29 32 26 35 37 36 34 37 40 43 45 50 53 58 57 62 68 72 74 73 63 70 62 45 49 43 35 37 31 29 30 35 33 37 37 39 44
31 29 26 25 25 28 27 29 29 36 33 36 42 42 41 44 47 51 47 47 52 58 64 67 70 68 64 50 43 52 49 43 40 34 34 30 22 25 33 33 24 31 37
30 27 21 20 19 24 29 32 34 39 40 41 45 46 49 46 52 58 58 49 44 39 48 57 65 63 57 53 49 48 52 43 36 36 27 29 17 21 18 26 27 30 33
28 23 16 13 19 32 35 34 37 39 36 37 41 45 48 49 51 55 59 47 34 30 32 40 52 55 55 50 50 50 55 49 43 38 35 32 23 24 17 22 21 27 34
25 19 16 17 23 31 31 33 36 35 33 34 36 37 40 44 53 56 50 41 30 26 31 34 43 46 46 44 41 43 48 50 40 34 33 34 26 17 8 15 21 35 38
25 20 20 20 25 25 26 29 31 33 33 32 30 31 34 42 53 57 45 39 36 29 26 26 30 34 39 40 39 39 35 40 34 27 35 32 24 19 8 13 17 19 24
Wind_Direction_500mb
309 311 312 312 311 309 309 307 305 304 303 301 300 299 297 294 291 287 283 277 271 267 265 261 256 256 255 255 254 257 255 254 255 257 248 244 243 242 242 243 242 240 232
308 310 311 311 310 309 310 309 308 306 305 304 302 300 298 296 294 292 288 282 276 271 266 263 260 254 254 254 253 252 261 255 254 254 257 243 242 243 239 241 243 242 239
305 308 308 308 307 308 308 308 307 306 306 305 304 303 301 299 297 296 292 288 283 276 270 266 264 260 256 255 255 251 249 259 255 253 253 251 241 242 242 240 241 242 242
304 305 306 307 308 309 309 309 308 307 307 306 305 303 303 302 299 296 294 290 284 280 274 267 264 261 257 253 252 254 249 247 259 250 251 250 245 240 240 244 239 241 241
304 305 306 308 308 309 309 309 309 310 310 308 306 304 304 302 302 300 294 291 287 281 275 269 263 260 257 255 252 251 252 250 252 256 253 251 248 243 240 240 241 241 240
302 303 306 307 309 309 310 310 310 309 310 310 307 306 304 305 305 299 297 292 287 283 274 270 266 262 259 256 255 252 251 250 251 250 253 251 250 247 242 241 240 241 240
302 303 305 307 308 309 310 311 311 311 310 311 311 307 306 311 305 300 299 294 288 278 276 272 269 266 264 259 255 253 252 250 249 249 245 261 243 247 244 243 241 240 240
301 303 305 307 308 309 309 310 310 309 308 310 312 315 315 313 300 302 295 288 279 281 276 274 274 273 272 269 264 258 253 250 249 248 247 249 256 243 240 243 242 239 240
303 306 308 308 309 309 308 308 307 304 303 301 302 297 318 304 317 308 286 291 280 276 278 279 277 276 274 274 274 272 268 257 253 250 251 247 250 255 253 254 253 238 240
303 304 305 306 306 306 305 303 300 297 294 293 291 283 276 278 299 307 303 293 295 293 290 288 283 277 277 276 276 276 272 271 263 255 251 249 248 251 252 254 264 249 236
304 306 306 307 307 307 306 305 302 297 290 288 290 289 285 281 277 275 290 303 297 302 306 306 299 294 289 283 278 276 273 266 261 259 261 256 250 249 247 255 255 251 232
304 307 309 309 308 308 307 305 301 296 293 284 284 283 280 280 277 280 285 293 295 301 303 302 304 309 304 294 288 283 276 269 261 261 264 263 259 255 253 253 251 253 257
307 310 312 312 309 308 307 305 302 295 290 285 283 282 281 280 283 285 287 293 296 301 301 304 305 306 307 304 293 297 285 270 266 264 263 266 264 259 259 254 257 250 254
311 315 314 311 307 305 304 304 299 297 295 290 285 284 284 284 283 283 282 290 294 296 298 295 301 310 298 303 296 299 295 288 273 267 261 265 266 264 257 252 250 243 247
313 315 315 310 305 304 298 298 295 296 293 290 287 286 285 283 282 281 281 283 285 291 293 298 298 295 299 299 299 297 302 295 283 268 263 267 265 264 259 248 241 232 225
313 316 315 309 304 299 298 295 292 290 287 286 285 285 283 284 283 281 281 284 285 286 285 290 292 298 302 304 303 298 297 298 289 278 265 265 256 256 258 252 244 231 230
314 317 316 317 314 310 306 298 295 294 293 290 285 284 282 281 280 281 281 277 273 274 278 286 288 291 294 298 301 299 296 292 297 277 268 261 258 258 248 244 244 240 234
315 317 318 318 317 318 314 309 306 303 301 303 303 299 296 295 291 290 286 281 278 275 274 281 289 291 292 295 296 298 291 290 291 275 266 269 262 258 250 241 235 235 237
313 318 318 321 323 322 319 313 309 312 310 307 306 305 301 297 292 289 287 286 283 280 278 281 286 287 290 293 293 292 290 293 286 286 254 266 255 259 263 262 231 235 233
310 318 316 320 323 325 322 323 325 321 316 309 300 298 302 301 297 294 288 283 281 278 277 279 280 281 281 280 281 283 287 280 280 282 266 270 268 240 262 262 237 231 233
306 314 310 315 324 326 329 331 327 322 317 318 324 325 323 318 314 307 298 293 287 280 277 278 278 280 276 279 283 291 284 288 273 267 265 255 264 240 248 262 241 230 232
295 304 306 314 322 325 332 333 331 325 325 327 325 323 321 317 317 321 310 296 288 279 270 268 272 275 279 283 275 282 288 276 274 260 257 255 242 267 230 258 246 237 233
289 294 310 314 322 330 327 325 328 325 323 324 326 329 327 330 326 325 326 314 301 279 268 269 270 271 273 277 275 280 282 278 258 258 260 245 260 275 272 267 261 258 254
284 277 295 301 326 334 329 325 330 328 332 328 332 333 331 333 333 335 328 323 313 292 276 265 266 273 277 280 274 264 265 273 262 251 251 251 253 271 281 295 288 275 266
271 269 267 281 314 331 330 338 337 332 337 339 337 336 337 339 349 345 338 336 332 307 290 283 276 275 275 276 267 264 259 254 247 239 231 238 231 230 259 301 312 295 280
257 258 258 280 307 328 342 341 339 335 345 346 350 351 351 353 356 357 350 345 343 339 319 302 293 285 280 277 269 249 246 231 231 222 214 221 220 222 236 338 334 328 320
Wind_Speed_850mb
28 31 33 36 38 40 42 44 46 47 48 49 49 51 51 52 53 56 58 58 62 66 71 71 73 74 74 70 60 64 65 63 59 54 65 66 68 68 63 57 51 50 48
34 36 38 40 42 45 47 49 52 54 55 58 58 60 61 61 60 60 61 61 61 65 70 74 75 80 84 80 75 65 64 70 67 65 58 70 72 73 70 65 61 56 55
39 41 43 44 45 47 49 52 54 57 60 63 64 66 67 67 68 68 68 68 66 65 67 72 76 79 82 87 79 76 74 66 74 71 68 64 76 76 75 73 69 65 61
43 44 46 46 48 50 53 56 59 62 64 67 71 72 73 75 75 74 73 72 71 70 68 68 73 77 81 85 91 80 80 83 69 77 72 70 73 81 82 82 77 75 72
47 48 48 49 51 54 55 59 62 66 71 74 79 80 79 78 77 75 74 73 70 68 68 67 71 75 79 84 90 97 90 81 88 67 79 76 72 81 87 88 86 84 82
48 48 49 51 55 58 59 62 67 69 74 79 86 88 86 81 75 68 59 55 54 54 57 60 64 70 75 81 86 91 101 97 92 87 70 83 81 78 89 93 94 94 92
47 47 50 54 57 60 63 65 70 72 73 72 80 83 84 73 52 56 50 44 40 44 45 46 51 58 63 70 78 84 89 97 100 98 95 75 90 88 88 96 101 101 101
45 48 53 56 59 64 65 66 68 72 71 62 60 63 46 64 44 27 41 40 37 38 37 37 40 46 53 58 63 71 80 87 95 100 105 99 95 105 96 100 106 109 107
46 51 55 59 62 66 68 69 68 64 63 59 43 32 19 15 59 33 26 46 43 47 48 48 49 50 52 52 52 58 60 75 84 93 98 113 110 113 72 105 118 113 108
48 51 55 60 64 68 69 67 63 58 53 53 44 38 35 41 24 42 43 51 63 53 51 53 55 59 60 60 54 52 52 48 58 80 92 99 112 110 109 88 75 109 110
49 52 57 62 66 67 68 61 53 45 40 42 37 36 40 43 46 56 78 50 64 71 67 58 48 50 48 52 59 58 54 49 46 52 64 82 99 105 107 107 97 72 81
48 53 59 61 61 59 56 48 41 38 36 37 39 40 41 46 45 51 64 71 74 78 74 69 64 51 47 50 50 50 49 52 58 54 54 66 78 89 100 92 93 97 93
48 52 55 56 54 51 46 39 38 37 38 40 41 44 44 48 49 54 60 71 78 80 78 76 62 60 53 43 36 33 39 48 55 59 60 60 69 79 78 84 80 72 72
49 52 54 54 48 46 40 35 38 40 40 41 43 45 49 51 51 52 55 62 78 77 68 64 65 56 38 46 55 58 50 48 53 54 59 56 61 67 70 70 67 65 70
48 51 52 50 44 41 37 37 39 40 41 44 46 48 50 52 52 52 54 57 61 77 90 63 59 54 62 61 59 48 55 53 47 55 56 54 60 61 62 64 64 65 59
46 48 47 44 40 39 38 36 39 42 43 46 48 51 53 56 57 58 57 60 65 73 96 70 66 71 64 70 66 66 61 53 47 48 53 47 45 56 61 60 65 63 67
43 44 45 41 40 38 38 39 42 43 45 48 51 55 60 61 64 70 70 70 68 65 84 97 79 72 75 69 64 58 59 57 59 48 44 47 35 40 49 56 57 59 66
40 42 40 38 36 36 37 39 40 38 40 43 43 46 50 52 57 56 58 63 67 68 76 94 80 76 71 66 65 64 62 48 50 47 35 36 37 32 36 49 59 58 60
38 38 33 33 33 35 36 34 35 34 34 41 43 46 52 54 59 60 60 65 66 68 69 80 90 77 73 66 65 61 49 49 44 42 36 33 38 40 37 33 52 57 60
36 36 31 29 31 34 33 31 27 32 41 42 46 49 46 47 52 57 63 68 71 68 71 72 76 77 71 70 70 68 54 38 38 40 33 34 37 39 43 41 39 44 50
33 32 28 25 28 31 29 32 26 35 37 36 34 37 40 43 45 50 53 58 57 62 68 72 74 73 63 70 62 45 49 43 35 37 31 29 30 35 33 37 37 39 44
31 29 26 25 25 28 27 29 29 36 33 36 42 42 41 44 47 51 47 47 52 58 64 67 70 68 64 50 43 52 49 43 40 34 34 30 22 25 33 33 24 31 37
30 27 21 20 19 24 29 32 34 39 40 41 45 46 49 46 52 58 58 49 44 39 48 57 65 63 57 53 49 48 52 43 36 36 27 29 17 21 18 26 27 30 33
28 23 16 13 19 32 35 34 37 39 36 37 41 45 48 49 51 55 59 47 34 30 32 40 52 55 55 50 50 50 55 49 43 38 35 32 23 24 17 22 21 27 34
25 19 16 17 23 31 31 33 36 35 33 34 36 37 40 44 53 56 50 41 30 26 31 34 43 46 46 44 41 43 48 50 40 34 33 34 26 17 8 15 21 35 38
25 20 20 20 25 25 26 29 31 33 33 32 30 31 34 42 53 57 45 39 36 29 26 26 30 34 39 40 39 39 35 40 34 27 35 32 24 19 8 13 17 19 24
Wind_Direction_850mb
309 311 312 312 311 309 309 307 305 304 303 301 300 299 297 294 291 287 283 277 271 267 265 261 256 256 255 255 254 257 255 254 255 257 248 244 243 242 242 243 242 240 232
308 310 311 311 310 309 310 309 308 306 305 304 302 300 298 296 294 292 288 282 276 271 266 263 260 254 254 254 253 252 261 255 254 254 257 243 242 243 239 241 243 242 239
305 308 308 308 307 308 308 308 307 306 306 305 304 303 301 299 297 296 292 288 283 276 270 266 264 260 256 255 255 251 249 259 255 253 253 251 241 242 242 240 241 242 242
304 305 306 307 308 309 309 309 308 307 307 306 305 303 303 302 299 296 294 290 284 280 274 267 264 261 257 253 252 254 249 247 259 250 251 250 245 240 240 244 239 241 241
304 305 306 308 308 309 309 309 309 310 310 308 306 304 304 302 302 300 294 291 287 281 275 269 263 260 257 255 252 251 252 250 252 256 253 251 248 243 240 240 241 241 240
302 303 306 307 309 309 310 310 310 309 310 310 307 306 304 305 305 299 297 292 287 283 274 270 266 262 259 256 255 252 251 250 251 250 253 251 250 247 242 241 240 241 240
302 303 305 307 308 309 310 311 311 311 310 311 311 307 306 311 305 300 299 294 288 278 276 272 269 266 264 259 255 253 252 250 249 249 245 261 243 247 244 243 241 240 240
301 303 305 307 308 309 309 310 310 309 308 310 312 315 315 313 300 302 295 288 279 281 276 274 274 273 272 269 264 258 253 250 249 248 247 249 256 243 240 243 242 239 240
303 306 308 308 309 309 308 308 307 304 303 301 302 297 318 304 317 308 286 291 280 276 278 279 277 276 274 274 274 272 268 257 253 250 251 247 250 255 253 254 253 238 240
303 304 305 306 306 306 305 303 300 297 294 293 291 283 276 278 299 307 303 293 295 293 290 288 283 277 277 276 276 276 272 271 263 255 251 249 248 251 252 254 264 249 236
304 306 306 307 307 307 306 305 302 297 290 288 290 289 285 281 277 275 290 303 297 302 306 306 299 294 289 283 278 276 273 266 261 259 261 256 250 249 247 255 255 251 232
304 307 309 309 308 308 307 305 301 296 293 284 284 283 280 280 277 280 285 293 295 301 303 302 304 309 304 294 288 283 276 269 261 261 264 263 259 255 253 253 251 253 257
307 310 312 312 309 308 307 305 302 295 290 285 283 282 281 280 283 285 287 293 296 301 301 304 305 306 307 304 293 297 285 270 266 264 263 266 264 259 259 254 257 250 254
311 315 314 311 307 305 304 304 299 297 295 290 285 284 284 284 283 283 282 290 294 296 298 295 301 310 298 303 296 299 295 288 273 267 261 265 266 264 257 252 250 243 247
313 315 315 310 305 304 298 298 295 296 293 290 287 286 285 283 282 281 281 283 285 291 293 298 298 295 299 299 299 297 302 295 283 268 263 267 265 264 259 248 241 232 225
313 316 315 309 304 299 298 295 292 290 287 286 285 285 283 284 283 281 281 284 285 286 285 290 292 298 302 304 303 298 297 298 289 278 265 265 256 256 258 252 244 231 230
314 317 316 317 314 310 306 298 295 294 293 290 285 284 282 281 280 281 281 277 273 274 278 286 288 291 294 298 301 299 296 292 297 277 268 261 258 258 248 244 244 240 234
315 317 318 318 317 318 314 309 306 303 301 303 303 299 296 295 291 290 286 281 278 275 274 281 289 291 292 295 296 298 291 290 291 275 266 269 262 258 250 241 235 235 237
313 318 318 321 323 322 319 313 309 312 310 307 306 305 301 297 292 289 287 286 283 280 278 281 286 287 290 293 293 292 290 293 286 286 254 266 255 259 263 262 231 235 233
310 318 316 320 323 325 322 323 325 321 316 309 300 298 302 301 297 294 288 283 281 278 277 279 280 281 281 280 281 283 287 280 280 282 266 270 268 240 262 262 237 231 233
306 314 310 315 324 326 329 331 327 322 317 318 324 325 323 318 314 307 298 293 287 280 277 278 278 280 276 279 283 291 284 288 273 267 265 255 264 240 248 262 241 230 232
295 304 306 314 322 325 332 333 331 325 325 327 325 323 321 317 317 321 310 296 288 279 270 268 272 275 279 283 275 282 288 276 274 260 257 255 242 267 230 258 246 237 233
289 294 310 314 322 330 327 325 328 325 323 324 326 329 327 330 326 325 326 314 301 279 268 269 270 271 273 277 275 280 282 278 258 258 260 245 260 275 272 267 261 258 254
284 277 295 301 326 334 329 325 330 328 332 328 332 333 331 333 333 335 328 323 313 292 276 265 266 273 277 280 274 264 265 273 262 251 251 251 253 271 281 295 288 275 266
271 269 267 281 314 331 330 338 337 332 337 339 337 336 337 339 349 345 338 336 332 307 290 283 276 275 275 276 267 264 259 254 247 239 231 238 231 230 259 301 312 295 280
257 258 258 280 307 328 342 341 339 335 345 346 350 351 351 353 356 357 350 345 343 339 319 302 293 285 280 277 269 249 246 231 231 222 214 221 220 222 236 338 334 328 320